Location: Unspecified
(48.7670°N, 0.0000°E)
Time: 05:41:23
(UTC+00:00)

A-11 Canister half - Pass Details

Date: 01 July 2019
Orbit: 1527 x 1682 km, 47.3° (Epoch: 13 October)

Event Time Altitude Azimuth Distance (km) Brightness Sun altitude
Exits shadow 01:40:04 19° 201° (SSW) 3,119 9.9 -14.9°
Maximum altitude 01:46:22 42° 143° (SE) 2,117 9.5 -14.5°
Drops below altitude 10° 01:54:57 10° 77° (ENE) 3,720 11.6 -13.9°
Sets 01:58:10 0° 71° (ENE) 4,694 12.3 -13.7°
